Weather History for Mountain Home, ID

Change the Weather History Date:

Sunday, May 26, 2013

  Actual Average Record
Temperature  
Mean Temperature 61 °F 61 °F  
Max Temperature 73 °F 75 °F 98 °F (1958)
Min Temperature 48 °F 46 °F 21 °F (1930)
Degree Days  
Heating Degree Days 4 6  
Month to date heating degree days 148 228  
Cooling Degree Days 0 2  
Month to date cooling degree days 14 26  
Growing Degree Days 10 (Base 50)    
Moisture  
Dew Point 39 °F    
Average Humidity 50    
Maximum Humidity 89    
Minimum Humidity 23    
Precipitation  
Precipitation 0.02 in 0.04 in 0.50 in (1998)
Month to date precipitation 0.08 1.10  
Sea Level Pressure  
Sea Level Pressure 29.90 in    
Wind  
Wind Speed 11 mph (NW)    
Max Wind Speed 31 mph    
Max Gust Speed 36 mph    
Visibility 10 miles    
Events Rain , Thunderstorm    
T = Trace of Precipitation, MM = Missing Value Source: NWS Daily Summary

Daily Weather History Graph

Daily Weather History Graph

Search for Another Location

Airport:

Trip Planner

Search our weather history database for the weather conditions in past years. The results will help you decide how hot, cold, wet, or windy it might be!

Date:

Astronomy

May. 26, 2013 Rise Set
Actual Time 6:10 AM MDT 9:11 PM MDT
Civil Twilight 5:36 AM MDT 9:45 PM MDT
Nautical Twilight 4:53 AM MDT 10:28 PM MDT
Astronomical Twilight 4:02 AM MDT 11:20 PM MDT
Moon 11:02 PM MDT (5/26) 7:44 AM MDT (5/26)
Length of Visible Light 16h 09m
Length of Day
15h 01m
Waning Gibbous, 96% of the Moon is Illuminated
May 26
Waning Gibbous
May 31
Last Quarter
Jun 8
New
Jun 16
First Quarter
Jun 23
Full

Hourly Weather History & Observations

Time (MDT) Temp. Dew Point Humidity Pressure Visibility Wind Dir Wind Speed Gust Speed Precip Events Conditions
12:58 AM 52.9 °F 25.0 °F 34% 29.83 in 10.0 mi WNW 8.1 mph - N/A   Clear
1:58 AM 51.4 °F 25.7 °F 37% 29.83 in 10.0 mi Variable 4.6 mph - N/A   Clear
2:58 AM 54.3 °F 26.6 °F 34% 29.81 in 10.0 mi NNW 6.9 mph - N/A   Clear
3:58 AM 53.8 °F 26.4 °F 35% 29.82 in 10.0 mi NW 9.2 mph - N/A   Partly Cloudy
4:58 AM 49.1 °F 26.2 °F 41% 29.84 in 10.0 mi WNW 4.6 mph - N/A   Overcast
5:58 AM 51.8 °F 27.1 °F 39% 29.84 in 10.0 mi WNW 5.8 mph - N/A   Overcast
6:58 AM 51.8 °F 31.6 °F 46% 29.85 in 10.0 mi North 5.8 mph - N/A   Mostly Cloudy
7:58 AM 55.4 °F 34.2 °F 45% 29.86 in 10.0 mi NW 9.2 mph - N/A   Mostly Cloudy
8:58 AM 60.3 °F 34.0 °F 37% 29.86 in 10.0 mi NW 12.7 mph - N/A   Overcast
9:58 AM 63.3 °F 32.7 °F 32% 29.86 in 10.0 mi NW 18.4 mph - N/A   Overcast
10:58 AM 66.9 °F 32.4 °F 28% 29.85 in 10.0 mi NNW 21.9 mph - N/A   Scattered Clouds
11:48 AM 71.6 °F 32.0 °F 23% 29.90 in 10.0 mi NNW 18.4 mph 25.3 mph N/A   Partly Cloudy
11:55 AM 69.8 °F 32.0 °F 25% 29.90 in 10.0 mi WNW 15.0 mph 24.2 mph N/A   Clear
11:56 AM 69.8 °F 32.0 °F 25% 29.90 in 10.0 mi WNW 13.8 mph 24.2 mph N/A   Clear
11:58 AM 70.2 °F 32.2 °F 25% 29.86 in 10.0 mi WNW 12.7 mph 24.2 mph N/A   Clear
12:13 PM 71.6 °F 32.0 °F 23% 29.90 in 10.0 mi WNW 15.0 mph 18.4 mph N/A   Clear
12:58 PM 72.0 °F 32.4 °F 23% 29.84 in 10.0 mi Variable 3.5 mph - N/A   Clear
1:58 PM 69.8 °F 31.8 °F 25% 29.85 in 10.0 mi West 13.8 mph - N/A   Mostly Cloudy
2:05 PM 69.8 °F 32.0 °F 25% 29.88 in 10.0 mi West 15.0 mph 31.1 mph N/A   Overcast
2:11 PM 66.2 °F 35.6 °F 32% 29.88 in 10.0 mi South 21.9 mph 31.1 mph N/A Rain Light Rain
2:15 PM 66.2 °F 37.4 °F 35% 29.89 in 10.0 mi SW 26.5 mph 33.4 mph N/A Rain Light Rain
2:20 PM 62.6 °F 42.8 °F 48% 29.89 in 10.0 mi SW 23.0 mph 33.4 mph N/A Rain Light Rain
2:25 PM 60.8 °F 44.6 °F 55% 29.91 in 10.0 mi SW 18.4 mph 32.2 mph N/A Rain Light Rain
2:35 PM 60.8 °F 44.6 °F 55% 29.90 in 5.0 mi South 3.5 mph - N/A Rain Rain
2:40 PM 62.6 °F 44.6 °F 52% 29.89 in 5.0 mi ENE 4.6 mph - N/A Rain Light Rain
2:45 PM 62.6 °F 44.6 °F 52% 29.90 in 10.0 mi North 3.5 mph - N/A   Scattered Clouds
2:58 PM 65.5 °F 42.6 °F 43% 29.87 in 10.0 mi WNW 11.5 mph - 0.01 in   Partly Cloudy
3:58 PM 68.5 °F 40.1 °F 35% 29.85 in 10.0 mi NNW 20.7 mph 27.6 mph N/A   Clear
4:33 PM 64.4 °F 39.2 °F 40% 29.91 in 10.0 mi North 16.1 mph 24.2 mph N/A Rain Light Rain
4:44 PM 62.6 °F 44.6 °F 52% 29.92 in 10.0 mi NNE 12.7 mph - N/A Rain Light Rain
4:58 PM 63.3 °F 42.4 °F 46% 29.88 in 10.0 mi North 20.7 mph - 0.00 in   Light Drizzle
5:03 PM 64.4 °F 41.0 °F 42% 29.90 in 10.0 mi North 19.6 mph - N/A   Mostly Cloudy
5:58 PM 64.9 °F 42.4 °F 44% 29.87 in 10.0 mi North 18.4 mph - 0.00 in   Clear
6:24 PM 62.6 °F 44.6 °F 52% 29.91 in 10.0 mi NW 31.1 mph 35.7 mph N/A Thunderstorm Thunderstorm
6:29 PM 60.8 °F 42.8 °F 52% 29.92 in 10.0 mi NNW 26.5 mph 35.7 mph N/A Thunderstorm Thunderstorm
6:44 PM 59.0 °F 44.6 °F 59% 29.97 in 10.0 mi WNW 16.1 mph - N/A Rain , Thunderstorm Light Thunderstorms and Rain
6:48 PM 57.2 °F 46.4 °F 67% 29.94 in 8.0 mi NNW 19.6 mph - N/A Rain , Thunderstorm Thunderstorms and Rain
6:53 PM 57.2 °F 46.4 °F 67% 29.93 in 8.0 mi North 19.6 mph - N/A Rain , Thunderstorm Light Thunderstorms and Rain
6:57 PM 57.2 °F 46.4 °F 67% 29.95 in 8.0 mi NNW 9.2 mph - N/A Rain , Thunderstorm Light Rain
6:58 PM 57.0 °F 46.8 °F 69% 29.93 in 9.0 mi NNW 5.8 mph - 0.00 in Rain , Thunderstorm Light Rain
7:03 PM 57.2 °F 46.4 °F 67% 29.95 in 10.0 mi NW 16.1 mph 20.7 mph N/A Rain Light Rain
7:38 PM 57.2 °F 48.2 °F 72% 29.97 in 10.0 mi NW 11.5 mph - N/A Rain Light Rain
7:58 PM 56.1 °F 49.5 °F 78% 29.96 in 10.0 mi WNW 10.4 mph - 0.01 in   Mostly Cloudy
8:13 PM 57.2 °F 48.2 °F 72% 29.97 in 10.0 mi NW 12.7 mph - N/A Rain Light Rain
8:23 PM 57.2 °F 48.2 °F 72% 29.97 in 10.0 mi NW 10.4 mph - N/A Rain Light Rain
8:33 PM 55.4 °F 46.4 °F 72% 29.96 in 10.0 mi NNW 9.2 mph - N/A   Mostly Cloudy
8:38 PM 57.2 °F 46.4 °F 67% 29.96 in 10.0 mi NNW 5.8 mph - N/A   Mostly Cloudy
8:58 PM 57.0 °F 44.6 °F 63% 29.93 in 10.0 mi WNW 2.3 mph - 0.00 in   Overcast
9:58 PM 54.3 °F 49.1 °F 83% 29.95 in 10.0 mi SSW 9.2 mph - 0.00 in   Mostly Cloudy
10:48 PM 50.0 °F 46.4 °F 87% 29.98 in 10.0 mi SW 3.5 mph - N/A   Mostly Cloudy
10:58 PM 49.5 °F 46.4 °F 89% 29.96 in 10.0 mi South 3.5 mph - N/A   Mostly Cloudy
11:08 PM 50.0 °F 46.4 °F 87% 29.99 in 10.0 mi South 5.8 mph - N/A   Scattered Clouds
11:58 PM 48.6 °F 44.1 °F 84% 29.96 in 10.0 mi West 3.5 mph - N/A   Clear